Location: Sangrey
(48.2845°N, 109.8206°W)
Time: 23:57:40
(UTC+00:00)

Envisat - Pass Details

Date: 23 January 2022
Orbit: 764 x 765 km, 98.2° (Epoch: 22 May)

Event Time Altitude Azimuth Distance (km) Brightness Sun altitude
Rises 00:45:15 0° 215° (SW) 3,219 7.3 -7.2°
Reaches altitude 10° 00:48:36 10° 239° (WSW) 2,299 7.1 -7.7°
Maximum altitude 00:51:23 15° 273° (W) 1,993 6.3 -8.1°
Drops below altitude 10° 00:54:11 10° 306° (NW) 2,309 6.0 -8.5°
Sets 00:57:36 0° 330° (NNW) 3,241 6.4 -9.1°
